New Iberia, LA

11:02 PM CST on February 21, 2017 (GMT -0600)
Acadiana Regional

Weather History for KARA - May, 2013

Change the Weather History Date:

Tuesday, May 21, 2013

  Actual Average Record
Temperature  
Mean Temperature 84 °F 78 °F  
Max Temperature 89 °F 87 °F 98 °F (2005)
Min Temperature 79 °F 68 °F 50 °F (1954)
Degree Days  
Heating Degree Days 0 0  
Month to date heating degree days 21 0  
Since 1 July heating degree days 1150 1408  
Cooling Degree Days 19 13  
Month to date cooling degree days 161 214  
Year to date cooling degree days 405 434  
Growing Degree Days 33 (Base 50)    
Moisture  
Dew Point 73 °F    
Average Humidity 72    
Maximum Humidity 85    
Minimum Humidity 59    
Precipitation  
Precipitation T in 0.16 in 3.10 in (1983)
Month to date precipitation 6.23 2.67  
Year to date precipitation 32.48 19.92  
Sea Level Pressure  
Sea Level Pressure 29.89 in    
Wind  
Wind Speed 13 mph (SSE)    
Max Wind Speed 22 mph    
Max Gust Speed 29 mph    
Visibility 10 miles    
Events      
T = Trace of Precipitation, MM = Missing Value Source: NWS Daily Summary

Daily Weather History Graph

Daily Weather History Graph

Search for Another Location

Airport or City:

Trip Planner

Search our weather history database for the weather conditions in past years. The results will help you decide how hot, cold, wet, or windy it might be!

Date:

Astronomy

May. 21, 2013 Rise Set
Actual Time 6:10 AM CDT 7:58 PM CDT
Civil Twilight 5:44 AM CDT 8:24 PM CDT
Nautical Twilight 5:12 AM CDT 8:56 PM CDT
Astronomical Twilight 4:38 AM CDT 9:30 PM CDT
Moon 4:25 PM CDT (5/21) 3:22 AM CDT (5/21)
Length of Visible Light 14h 40m
Length of Day
13h 47m
Waxing Gibbous, 84% of the Moon is Illuminated
May 21
Waxing Gibbous
May 24
Full
May 31
Last Quarter
Jun 8
New
Jun 16
First Quarter

Hourly Weather History & Observations

Time (CDT) Temp. Heat Index Dew Point Humidity Pressure Visibility Wind Dir Wind Speed Gust Speed Precip Events Conditions
12:53 AM 80.1 °F 84.5 °F 73.9 °F 81% 29.94 in 10.0 mi SSE 10.4 mph - N/A   Mostly Cloudy
1:53 AM 80.1 °F 84.5 °F 73.9 °F 81% 29.93 in 10.0 mi SSE 9.2 mph - N/A   Mostly Cloudy
2:15 AM 78.8 °F - 73.4 °F 83% 29.92 in 10.0 mi SSE 10.4 mph - N/A   Scattered Clouds
2:53 AM 79.0 °F - 73.9 °F 84% 29.91 in 10.0 mi SSE 6.9 mph - N/A   Scattered Clouds
3:06 AM 78.8 °F - 73.4 °F 83% 29.91 in 10.0 mi SSE 6.9 mph - N/A   Mostly Cloudy
3:53 AM 79.0 °F - 73.9 °F 84% 29.91 in 10.0 mi SSE 6.9 mph - N/A   Overcast
4:53 AM 80.1 °F 84.5 °F 73.9 °F 81% 29.91 in 10.0 mi South 11.5 mph - N/A   Overcast
5:16 AM 78.8 °F - 73.4 °F 83% 29.91 in 10.0 mi South 8.1 mph - 0.00 in   Overcast
5:53 AM 79.0 °F - 73.9 °F 84% 29.91 in 10.0 mi South 6.9 mph - 0.00 in   Overcast
6:31 AM 78.8 °F - 73.4 °F 83% 29.93 in 9.0 mi South 6.9 mph - N/A   Overcast
6:49 AM 78.8 °F - 73.4 °F 83% 29.93 in 10.0 mi South 9.2 mph - N/A   Mostly Cloudy
6:53 AM 79.0 °F - 73.0 °F 82% 29.93 in 10.0 mi South 9.2 mph - N/A   Scattered Clouds
7:30 AM 78.8 °F - 73.4 °F 83% 29.95 in 9.0 mi SSE 4.6 mph - N/A   Mostly Cloudy
7:53 AM 82.0 °F 87.9 °F 73.9 °F 76% 29.94 in 10.0 mi SSE 11.5 mph 16.1 mph N/A   Overcast
8:04 AM 80.6 °F 85.4 °F 73.4 °F 79% 29.94 in 10.0 mi SE 12.7 mph - N/A   Mostly Cloudy
8:53 AM 84.0 °F 90.2 °F 73.0 °F 69% 29.94 in 10.0 mi SSE 17.3 mph - N/A   Mostly Cloudy
9:07 AM 84.2 °F 90.9 °F 73.4 °F 70% 29.94 in 10.0 mi SSE 17.3 mph - N/A   Mostly Cloudy
9:53 AM 82.9 °F 88.8 °F 73.0 °F 72% 29.95 in 10.0 mi South 13.8 mph - 0.00 in   Overcast
10:18 AM 82.4 °F 88.2 °F 73.4 °F 74% 29.95 in 10.0 mi South 17.3 mph 21.9 mph 0.00 in   Mostly Cloudy
10:53 AM 86.0 °F 93.8 °F 73.9 °F 67% 29.94 in 10.0 mi SSE 19.6 mph 26.5 mph 0.00 in   Scattered Clouds
11:53 AM 87.1 °F 94.5 °F 73.0 °F 63% 29.93 in 10.0 mi South 15.0 mph 24.2 mph N/A   Scattered Clouds
12:53 PM 87.1 °F 94.5 °F 73.0 °F 63% 29.92 in 10.0 mi South 18.4 mph 23.0 mph N/A   Scattered Clouds
1:53 PM 88.0 °F 94.7 °F 72.0 °F 59% 29.91 in 10.0 mi South 17.3 mph - N/A   Scattered Clouds
2:21 PM 87.8 °F 95.6 °F 73.4 °F 62% 29.90 in 2.0 mi South 16.1 mph - N/A   Haze
2:30 PM 87.8 °F 95.6 °F 73.4 °F 62% 29.89 in 10.0 mi SSE 16.1 mph - N/A   Partly Cloudy
2:53 PM 88.0 °F 95.6 °F 73.0 °F 61% 29.89 in 10.0 mi South 16.1 mph 23.0 mph N/A   Partly Cloudy
3:53 PM 88.0 °F 95.6 °F 73.0 °F 61% 29.88 in 10.0 mi South 15.0 mph 25.3 mph N/A   Partly Cloudy
4:30 PM 86.0 °F 91.8 °F 71.6 °F 62% 29.86 in 10.0 mi South 17.3 mph - N/A   Mostly Cloudy
4:38 PM 86.0 °F 93.4 °F 73.4 °F 66% 29.86 in 10.0 mi South 16.1 mph - N/A   Scattered Clouds
4:53 PM 86.0 °F 93.0 °F 73.0 °F 65% 29.86 in 10.0 mi South 17.3 mph 25.3 mph N/A   Scattered Clouds
5:06 PM 86.0 °F 93.4 °F 73.4 °F 66% 29.85 in 10.0 mi SSE 18.4 mph - N/A   Mostly Cloudy
5:15 PM 84.2 °F 90.9 °F 73.4 °F 70% 29.84 in 10.0 mi SSE 17.3 mph 25.3 mph N/A   Mostly Cloudy
5:26 PM 84.2 °F 90.9 °F 73.4 °F 70% 29.84 in 10.0 mi SSE 20.7 mph 24.2 mph N/A   Mostly Cloudy
5:46 PM 84.2 °F 90.9 °F 73.4 °F 70% 29.83 in 10.0 mi South 17.3 mph 27.6 mph N/A   Mostly Cloudy
5:53 PM 84.0 °F 90.2 °F 73.0 °F 69% 29.83 in 10.0 mi South 18.4 mph 26.5 mph N/A   Mostly Cloudy
6:03 PM 84.2 °F 89.6 °F 71.6 °F 66% 29.82 in 10.0 mi South 20.7 mph 25.3 mph N/A   Mostly Cloudy
6:51 PM 82.4 °F 88.2 °F 73.4 °F 74% 29.82 in 10.0 mi South 19.6 mph 25.3 mph N/A   Overcast
6:53 PM 82.9 °F 88.8 °F 73.0 °F 72% 29.82 in 10.0 mi SSE 19.6 mph 25.3 mph N/A   Overcast
7:09 PM 82.4 °F 88.2 °F 73.4 °F 74% 29.82 in 10.0 mi SSE 16.1 mph 25.3 mph N/A   Overcast
7:53 PM 82.0 °F 87.4 °F 73.0 °F 74% 29.83 in 10.0 mi SSE 13.8 mph - N/A   Mostly Cloudy
8:53 PM 81.0 °F 85.8 °F 73.0 °F 77% 29.86 in 10.0 mi South 9.2 mph - N/A   Overcast
9:53 PM 80.1 °F 84.2 °F 73.0 °F 79% 29.87 in 10.0 mi SSE 10.4 mph - N/A   Mostly Cloudy
10:53 PM 80.1 °F 84.2 °F 73.0 °F 79% 29.89 in 10.0 mi South 6.9 mph - N/A   Scattered Clouds
11:53 PM 80.1 °F 84.5 °F 73.9 °F 81% 29.90 in 10.0 mi SSE 5.8 mph - N/A   Mostly Cloudy